www.pogodaiklimat.ru

Погода и климат >> Архив погоды >> Россия >> Иркутская область >> Жигалово


АРХИВ ПОГОДЫ в Жигалове

Время (UTC), дата Ветер
(напр.,м/с)
 
Видим.   Явления Облачность Т
(С)
Тd
(С)
f
(%)
Тe
(С)
Тes
(С)
Комфортность P
(гПа)
Po
(гПа)
Тmin
(С)
Tmax
(С)
R
(мм)
R24
(мм)
S
(см)
09 11.02 ЮЗ 1 50 км ясно -24.0 -32.5 45 -27 -27 1047.3 989.1
12 11.02 штиль 0 н/о ясно -33.0 -37.2 66 -33 -33 опасность
обморожения
1050.2 989.8 -21.9
15 11.02 штиль 0 н/о ясно -36.8 -41.5 62 -37 -37 опасность
обморожения
1051.6 990.1
18 11.02 штиль 0 н/о ясно -38.8 -43.8 59 -39 -39 опасность
обморожения
1052.5 990.4
21 11.02 штиль 0 н/о ясно -40.4 -45.7 57 -40 -40 опасность
обморожения
1052.6 990.1
00 12.02 штиль 0 н/о туман ясно -41.9 -47.4 55 -42 -42 опасность
обморожения
1053.3 990.4 -42.0 24
03 12.02 штиль 0 500 м туман ясно -35.4 -40.3 61 -35 -33 опасность
обморожения
1050.8 989.7 -42.4
06 12.02 штиль 0 50 км {туман} ясно -22.6 -33.8 35 -23 -19 1045.0 987.3
09 12.02 штиль 0 50 км ясно -22.2 -30.9 45 -22 -22 1042.3 984.8
12 12.02 штиль 0 н/о ясно -31.2 -35.0 69 -31 -31 опасность
обморожения
1044.4 984.8 -19.8
15 12.02 штиль 0 н/о ясно -35.9 -40.4 63 -36 -36 опасность
обморожения
1045.7 984.8
18 12.02 штиль 0 н/о ясно -38.2 -43.0 60 -38 -38 опасность
обморожения
1045.8 984.3
21 12.02 штиль 0 н/о ясно -38.9 -44.0 58 -39 -39 опасность
обморожения
1046.0 984.3
00 13.02 штиль 0 н/о 4/0
[Ci fib]
-39.9 -45.2 57 -40 -40 опасность
обморожения
1046.9 984.9 -39.9 24
03 13.02 СВ 1 50 км 6/0
[Ci fib]
-33.0 -38.4 58 -37 -35 опасность
обморожения
1045.4 985.2 -40.0
06 13.02 В 1 50 км 10/0
[Cs]
-24.3 -31.5 51 -28 -25 1041.8 983.8
09 13.02 штиль 0 50 км 4/0
[Ci fib]
-20.3 -28.3 49 -20 -20 1039.9 982.9
12 13.02 штиль 0 н/о 3/0
[Ci fib]
-29.4 -33.2 69 -29 -29 1043.5 984.3 -18.1
15 13.02 штиль 0 н/о 3/0
[Ci fib]
-31.5 -35.6 67 -32 -32 опасность
обморожения
1045.0 985.2
18 13.02 штиль 0 н/о ясно -32.8 -37.2 65 -33 -33 опасность
обморожения
1045.8 985.6
21 13.02 штиль 0 н/о слаб. снег 10/0
[Cs]
-32.1 -36.4 65 -32 -32 опасность
обморожения
1045.8 985.8
00 14.02 штиль 0 н/о {снег} 10/3 600 м
[Cb cap Ac trans Ci fib]
-29.6 -33.7 67 -30 -30 1045.4 986.0 -33.5 0.2 24
03 14.02 С 1 50 км {ливн. осадки} 10/3 600 м
[Cb cap Ci fib]
-25.6 -30.8 62 -29 -28 1045.1 986.7
06 14.02 СВ 1 50 км {ливн. осадки} 3/0
[Ci fib]
-19.0 -26.4 52 -22 -19 1042.0 985.2
09 14.02 штиль 0 50 км 3/0
[Ci fib]
-13.6 -22.7 46 -14 -13 1039.6 984.1
12 14.02 штиль 0 н/о 4/0
[Ci fib]
-24.5 -27.8 74 -25 -25 1043.0 985.0 -11.1 0.0
15 14.02 штиль 0 н/о 10/0
[Cs]
-24.8 -28.3 73 -25 -25 1043.5 985.3
18 14.02 штиль 0 н/о 10/0
[Cs]
-22.4 -25.8 74 -22 -22 1043.2 985.6
21 14.02 штиль 0 н/о 10/0
[Cs]
-23.5 -26.7 75 -24 -24 1043.7 985.8
00 15.02 штиль 0 50 км 10/0
[Cs]
-26.2 -29.5 74 -26 -26 1044.8 986.2 -27.2 24
03 15.02 штиль 0 50 км 10/0
[Ci fib]
-21.1 -27.2 58 -21 -19 1043.8 986.5 -27.5
06 15.02 штиль 0 50 км 3/0
[Ci fib]
-10.4 -21.4 40 -10 -7 1039.8 984.9
09 15.02 штиль 0 50 км 3/0
[Ci fib]
-10.4 -19.3 48 -11 -10 1038.2 983.4
12 15.02 штиль 0 н/о 3/0
[Ci fib]
-21.6 -24.2 79 -22 -22 1041.0 983.7 -8.9
15 15.02 штиль 0 н/о ясно -25.2 -28.4 75 -25 -25 1041.1 983.3
18 15.02 штиль 0 н/о ясно -27.7 -31.4 71 -28 -28 1042.0 983.2
21 15.02 З 1 н/о ясно -30.0 -33.9 69 -34 -34 опасность
обморожения
1042.4 983.1
00 16.02 штиль 0 50 км 3/0
[Ci fib]
-31.5 -35.6 67 -32 -32 опасность
обморожения
1042.3 982.6 -31.5 24
03 16.02 штиль 0 50 км 4/0
[Ci fib]
-24.5 -27.9 73 -25 -22 1039.5 981.6 -31.5
06 16.02 штиль 0 50 км 6/0
[Ci fib]
-12.7 -21.6 47 -13 -9 1034.0 979.0
09 16.02 Ю 1 50 км 8/0
[Ci fib]
-11.3 -19.1 52 -13 -13 1030.7 976.1
12 16.02 штиль 0 н/о 6/0
[Ci fib]
-20.3 -23.0 79 -20 -20 1031.7 975.2 -9.1
15 16.02 Ю 1 н/о 3/0
[Ci fib]
-24.8 -28.0 75 -28 -28 1032.1 974.6
18 16.02 штиль 0 н/о ясно -27.3 -30.8 72 -27 -27 1031.9 973.8
21 16.02 штиль 0 н/о ясно -29.0 -32.8 70 -29 -29 1031.2 972.8
00 17.02 СВ 1 50 км 8/0
[Ci fib]
-29.5 -33.3 69 -34 -34 опасность
обморожения
1030.6 972.1 -29.8 24
03 17.02 штиль 0 50 км 10/0
[Cs]
-24.2 -27.8 72 -24 -22 1029.4 972.2 -29.9
06 17.02 В 1 50 км 3/0
[Ci fib]
-14.9 -21.3 58 -17 -14 1024.8 969.8
09 17.02 штиль 0 50 км 3/0
[Ci fib]
-9.8 -18.8 48 -10 -10 1021.1 967.4
12 17.02 штиль 0 н/о 8/0
[Ac trans]
-15.1 -18.3 76 -15 -15 1021.9 967.1 -7.1
15 17.02 штиль 0 н/о 3/0
[Ac trans]
-20.7 -23.3 80 -21 -21 1023.0 966.9
18 17.02 ЮВ 1 н/о ясно -24.1 -27.2 75 -28 -28 1023.9 967.0
21 17.02 штиль 0 н/о ясно -27.0 -30.5 72 -27 -27 1024.5 966.9
00 18.02 штиль 0 50 км ясно -28.7 -32.4 70 -29 -29 1024.5 966.5 -28.7 24
03 18.02 штиль 0 50 км ясно -20.3 -23.9 73 -20 -17 1022.6 966.6 -29.2
06 18.02 штиль 0 50 км ясно -9.3 -18.5 47 -9 -5 1017.9 964.4

 

Местоположение метеостанции Жигалово (Иркутская область, Россия): широта 54.80 долгота 105.10 высота над уровнем моря 419 м.

В архиве по умолчанию представлена погода в Жигалове за последнюю неделю. Архивные данные за месяц целиком и за предыдущие месяцы, начиная с января 2011 года, Вы можете получить, выбрав интересующий диапазон дат из раскрывающегося списка и нажав кнопку "Ввод!".


*Определитесь, кто Вы:
робот инопланетянин человек

Внимание! Время в таблицах - всемирное. Для получения местного времени необходимо прибавить поправку, которая равна 8 ч.

Смотрите также архив погоды в соседних городах и на ближайших метеорологических станциях:

Погода в Качуге (Иркутская область, Россия) (106 км)
Погода в Тырке (Иркутская область, Россия) (127 км)
Погода в Орлинге (Иркутская область, Россия) (146 км)
Погода в Балаганске (Иркутская область, Россия) (162 км)
Погода в Караме (Иркутская область, Россия) (164 км)
Погода в Баяндае (Иркутская область, Россия) (191 км)
Погода в Заярске (Иркутская область, Россия) (213 км)
Погода в Солнечной (Иркутская область, Россия) (218 км)
Погода в Заларях (Иркутская область, Россия) (219 км)
Погода в Усть-Ордынском (Иркутская область, Россия) (223 км)

Пояснения к столбцам:

Ветер - указаны скорость ветра в м/с - средняя за 10 мин, порывы в срок и между сроками (в фигурных скобках) и направление, откуда дует ветер: С - северный, СВ - северо-восточный, В - восточный, ЮВ - юго-восточный, Ю - южный, ЮЗ - юго-западный, З - западный, СЗ - северо-западный.
Видимость - горизонтальная дальность видимости в метрах или километрах. При видимости от 1 до 10 км при отсутствии осадков обычно наблюдается дымка, при ухудшении видимости до 1 км и менее - туман. В сухую погоду видимость может ухудшаться дымом, пылью или мглою.
Явления - указаны атмосферные явления, наблюдавшиеся в срок или в последний час перед сроком; фигурными скобками обозначены явления, наблюдавшиеся между сроками (за 1-3 часа до срока); квадратными скобками обозначены град или гололедные отложения с указанием их диаметра в мм.
Облачность - указаны через наклонную черту общая и нижняя облачность в баллах и высота нижней границы облаков в метрах; квадратными скобками обозначены формы облаков: Ci - перистые, Cs - перисто-слоистые, Cc - перисто-кучевые, Ac - высококучевые, As - высокослоистые, Sc - слоисто-кучевые, Ns - слоисто-дождевые, Cu - кучевые, Cb - кучево-дождевые. Подробнее классификацию облаков см. в Атласе облаков (PDF).
T - Температура воздуха - температура, измеренная на высоте 2 м над землей.
Td - Температура точки росы - температура, при понижении до которой содержащийся в воздухе водяной пар достигнет насыщения.
f - Относительная влажность воздуха - влажноcть воздуха, измеренная на высоте 2 м над землей.
Te - Эффективная температура - температура, которую ощущает одетый по сезону человек в тени. Характеристика душности погоды. При расчете учитывается влияние влажности воздуха и скорости ветра на теплоощущения человека.
Tes - Эффективная температура на солнце - температура, которую ощущает человек, с поправкой на солнечный нагрев. Характеристика знойности погоды. Зависит от высоты солнца над горизонтом, облачности и скорости ветра. Ночью, в пасмурную погоду, а также при ветре 12 м/с и более поправка равна нулю.
P - Атмосферное давление - приведенное к уровню моря атмосферное давление.
Po - Атмосферное давление - измеренное на уровне метеостанции атмосферное давление.
Tmin - Минимальная температура - минимум температуры воздуха на высоте 2 м над землей.
Tmax - Максимальная температура - максимум температуры воздуха на высоте 2 м над землей.
R - Количество осадков - Количество выпавших осадков за период времени, мм. При наведении курсора мыши на число - период времени, за который выпало указанное количество осадков.
R24 - Количество осадков - Количество выпавших осадков за 24 часа, мм.
S - Снежный покров - Высота снежного покрова, см. При наведении курсора мыши на число - состояние снежного покрова и степень покрытия местности в баллах.